Kankakee, IL

8:46 AM CDT on September 26, 2017 (GMT -0500)
Greater Kankakee

Weather History for KIKK - May, 2013

Change the Weather History Date:

Tuesday, May 14, 2013

  Actual Average Record
Temperature  
Mean Temperature 70 °F -  
Max Temperature 89 °F 71 °F 89 °F (1982)
Min Temperature 52 °F 48 °F 34 °F (1978)
Cooling Degree Days 6    
Growing Degree Days 20 (Base 50)    
Moisture  
Dew Point 49 °F    
Average Humidity 48    
Maximum Humidity 62    
Minimum Humidity 26    
Precipitation  
Precipitation 0.00 in - - ()
Sea Level Pressure  
Sea Level Pressure 29.82 in    
Wind  
Wind Speed 13 mph (SSW)    
Max Wind Speed 23 mph    
Max Gust Speed 30 mph    
Visibility 10 miles    
Events      
Averages and records for this station are not official NWS values.
T = Trace of Precipitation, MM = Missing Value Source: NWS Daily Summary

Daily Weather History Graph

Daily Weather History Graph

Search for Another Location

Airport or City:

Trip Planner

Search our weather history database for the weather conditions in past years. The results will help you decide how hot, cold, wet, or windy it might be!

Date:

Astronomy

May. 14, 2013 Rise Set
Actual Time 5:34 AM CDT 8:01 PM CDT
Civil Twilight 5:02 AM CDT 8:33 PM CDT
Nautical Twilight 4:24 AM CDT 9:12 PM CDT
Astronomical Twilight 3:40 AM CDT 9:55 PM CDT
Moon 9:13 AM CDT (5/14) 11:48 PM CDT (5/14)
Length of Visible Light 15h 30m
Length of Day
14h 27m
Waxing Crescent, 19% of the Moon is Illuminated
May 14
Waxing Crescent
May 17
First Quarter
May 24
Full
May 31
Last Quarter
Jun 8
New

Hourly Weather History & Observations

Time (CDT) Temp. Heat Index Dew Point Humidity Pressure Visibility Wind Dir Wind Speed Gust Speed Precip Events Conditions
12:15 AM 55.0 °F - 36.7 °F 50% 30.04 in 10.0 mi South 8.1 mph - N/A   Clear
12:35 AM 54.5 °F - 37.0 °F 52% 30.03 in 10.0 mi South 8.1 mph - N/A   Mostly Cloudy
12:55 AM 54.5 °F - 37.6 °F 53% 30.02 in 10.0 mi South 9.2 mph - N/A   Overcast
1:15 AM 54.0 °F - 37.8 °F 54% 30.01 in 10.0 mi South 10.4 mph - N/A   Scattered Clouds
1:35 AM 54.0 °F - 37.8 °F 54% 30.00 in 10.0 mi South 11.5 mph - N/A   Clear
1:55 AM 53.8 °F - 37.9 °F 55% 29.99 in 10.0 mi South 12.7 mph 18.4 mph N/A   Clear
2:15 AM 53.8 °F - 37.8 °F 55% 29.98 in 10.0 mi South 12.7 mph - N/A   Clear
2:35 AM 53.8 °F - 37.6 °F 54% 29.97 in 10.0 mi South 11.5 mph - N/A   Clear
2:55 AM 53.6 °F - 37.0 °F 53% 29.96 in 10.0 mi South 12.7 mph - N/A   Clear
3:15 AM 52.9 °F - 36.9 °F 55% 29.95 in 10.0 mi South 11.5 mph 17.3 mph N/A   Clear
3:35 AM 52.3 °F - 37.0 °F 56% 29.95 in 10.0 mi South 11.5 mph - N/A   Clear
3:55 AM 52.0 °F - 37.0 °F 57% 29.94 in 10.0 mi South 11.5 mph - N/A   Clear
4:15 AM 52.7 °F - 36.9 °F 55% 29.93 in 10.0 mi South 13.8 mph - N/A   Scattered Clouds
4:35 AM 52.9 °F - 36.5 °F 54% 29.92 in 10.0 mi South 12.7 mph 18.4 mph N/A   Scattered Clouds
4:55 AM 53.2 °F - 36.5 °F 53% 29.92 in 10.0 mi South 13.8 mph 18.4 mph N/A   Clear
5:15 AM 53.6 °F - 36.7 °F 53% 29.91 in 10.0 mi South 15.0 mph 19.6 mph N/A   Clear
5:35 AM 53.6 °F - 37.4 °F 54% 29.91 in 10.0 mi South 19.6 mph 24.2 mph N/A   Clear
5:55 AM 53.1 °F - 38.1 °F 57% 29.90 in 10.0 mi South 16.1 mph 23.0 mph N/A   Clear
6:15 AM 53.2 °F - 38.8 °F 58% 29.90 in 10.0 mi South 16.1 mph 19.6 mph N/A   Clear
6:35 AM 54.1 °F - 39.6 °F 58% 29.89 in 10.0 mi South 15.0 mph 21.9 mph N/A   Clear
6:55 AM 55.0 °F - 40.6 °F 58% 29.88 in 10.0 mi South 16.1 mph 20.7 mph N/A   Clear
7:15 AM 56.7 °F - 42.1 °F 58% 29.87 in 10.0 mi South 18.4 mph 24.2 mph N/A   Clear
7:35 AM 58.8 °F - 43.5 °F 57% 29.86 in 10.0 mi South 19.6 mph 23.0 mph N/A   Clear
7:55 AM 60.6 °F - 44.6 °F 56% 29.86 in 10.0 mi South 17.3 mph 27.6 mph N/A   Clear
8:15 AM 62.8 °F - 46.4 °F 55% 29.85 in 10.0 mi South 23.0 mph 29.9 mph N/A   Clear
8:35 AM 64.4 °F - 47.1 °F 53% 29.84 in 10.0 mi SSW 17.3 mph 28.8 mph N/A   Clear
8:55 AM 66.4 °F - 48.6 °F 53% 29.84 in 10.0 mi SSW 21.9 mph 27.6 mph N/A   Clear
9:15 AM 67.3 °F - 49.3 °F 52% 29.83 in 10.0 mi SSW 19.6 mph 27.6 mph N/A   Clear
9:35 AM 68.7 °F - 50.4 °F 52% 29.83 in 10.0 mi SSW 16.1 mph 26.5 mph N/A   Clear
9:55 AM 71.1 °F - 51.6 °F 50% 29.83 in 10.0 mi SW 23.0 mph 27.6 mph N/A   Clear
10:15 AM 72.9 °F - 52.3 °F 48% 29.82 in 10.0 mi SW 19.6 mph 25.3 mph N/A   Clear
10:35 AM 73.6 °F - 53.2 °F 49% 29.82 in 10.0 mi SW 17.3 mph 24.2 mph N/A   Clear
10:55 AM 75.4 °F - 54.5 °F 48% 29.81 in 10.0 mi WSW 15.0 mph - N/A   Clear
11:15 AM 76.6 °F - 55.4 °F 48% 29.80 in 10.0 mi WSW 15.0 mph 21.9 mph N/A   Clear
11:35 AM 77.2 °F - 55.8 °F 47% 29.80 in 10.0 mi WSW 16.1 mph 24.2 mph N/A   Clear
11:55 AM 78.1 °F - 56.1 °F 47% 29.80 in 10.0 mi WSW 16.1 mph 21.9 mph N/A   Clear
12:15 PM 79.0 °F - 56.3 °F 46% 29.79 in 10.0 mi WSW 18.4 mph 25.3 mph N/A   Clear
12:35 PM 80.2 °F 80.5 °F 56.8 °F 45% 29.80 in 10.0 mi WSW 13.8 mph 20.7 mph N/A   Clear
12:55 PM 81.1 °F 81.2 °F 57.2 °F 44% 29.79 in 10.0 mi WSW 18.4 mph 21.9 mph N/A   Clear
1:15 PM 81.9 °F 81.8 °F 57.9 °F 44% 29.79 in 10.0 mi SW 13.8 mph 19.6 mph N/A   Clear
1:35 PM 82.8 °F 82.5 °F 58.1 °F 43% 29.78 in 10.0 mi SW 12.7 mph 21.9 mph N/A   Clear
1:55 PM 84.0 °F 83.3 °F 57.2 °F 40% 29.78 in 10.0 mi WSW 13.8 mph 19.6 mph N/A   Clear
2:15 PM 85.1 °F 84.1 °F 56.7 °F 38% 29.77 in 10.0 mi WSW 15.0 mph 20.7 mph N/A   Clear
2:35 PM 86.5 °F 85.1 °F 55.6 °F 35% 29.77 in 10.0 mi WSW 13.8 mph 18.4 mph N/A   Clear
2:55 PM 87.3 °F 85.9 °F 56.3 °F 35% 29.76 in 10.0 mi WSW 12.7 mph 18.4 mph N/A   Clear
3:15 PM 87.8 °F 86.1 °F 55.6 °F 33% 29.76 in 10.0 mi West 13.8 mph 17.3 mph N/A   Clear
3:35 PM 88.9 °F 86.7 °F 53.6 °F 30% 29.75 in 10.0 mi WSW 13.8 mph 17.3 mph N/A   Clear
3:55 PM 88.9 °F - 52.3 °F 29% 29.75 in 10.0 mi West 12.7 mph 16.1 mph N/A   Clear
4:15 PM 89.1 °F - 52.5 °F 29% 29.75 in 10.0 mi WSW 4.6 mph 10.4 mph N/A   Clear
4:35 PM 89.4 °F - 50.0 °F 26% 29.75 in 10.0 mi West 10.4 mph 17.3 mph N/A   Clear
4:55 PM 89.6 °F - 52.0 °F 28% 29.75 in 10.0 mi West 11.5 mph - N/A   Clear
5:15 PM 89.6 °F - 52.3 °F 28% 29.75 in 10.0 mi West 8.1 mph - N/A   Clear
5:35 PM 88.5 °F 86.5 °F 54.3 °F 31% 29.74 in 10.0 mi WSW 10.4 mph - N/A   Clear
5:55 PM 87.4 °F 85.7 °F 55.2 °F 33% 29.73 in 10.0 mi SW 6.9 mph - N/A   Clear
6:15 PM 87.6 °F 85.7 °F 54.5 °F 32% 29.73 in 10.0 mi SW 9.2 mph - N/A   Clear
6:35 PM 86.7 °F 84.7 °F 53.2 °F 32% 29.72 in 10.0 mi SSW 8.1 mph - N/A   Clear
6:55 PM 84.6 °F 83.1 °F 54.0 °F 35% 29.71 in 10.0 mi SW 8.1 mph - N/A   Clear
7:15 PM 83.8 °F 82.6 °F 54.0 °F 36% 29.71 in 10.0 mi SSW 10.4 mph - N/A   Clear
7:35 PM 82.8 °F 82.1 °F 55.9 °F 40% 29.71 in 10.0 mi SSW 12.7 mph - N/A   Clear
7:55 PM 81.7 °F 81.5 °F 57.2 °F 43% 29.71 in 10.0 mi SSW 15.0 mph 20.7 mph N/A   Clear
8:15 PM 81.1 °F 81.4 °F 58.5 °F 46% 29.71 in 10.0 mi SSW 16.1 mph 21.9 mph N/A   Clear
8:35 PM 79.7 °F - 58.5 °F 48% 29.71 in 10.0 mi SSW 13.8 mph 20.7 mph N/A   Clear
8:55 PM 78.6 °F - 58.6 °F 50% 29.73 in 10.0 mi SSW 12.7 mph 17.3 mph N/A   Clear
9:15 PM 77.5 °F - 58.5 °F 52% 29.73 in 10.0 mi SSW 12.7 mph 18.4 mph N/A   Clear
9:35 PM 77.0 °F - 58.3 °F 52% 29.74 in 10.0 mi SSW 11.5 mph - N/A   Clear
9:55 PM 75.9 °F - 58.1 °F 54% 29.74 in 10.0 mi South 12.7 mph 19.6 mph N/A   Clear
10:15 PM 74.1 °F - 57.7 °F 56% 29.74 in 10.0 mi South 11.5 mph - N/A   Clear
10:35 PM 73.2 °F - 57.6 °F 58% 29.74 in 10.0 mi South 12.7 mph 17.3 mph N/A   Clear
10:55 PM 73.2 °F - 57.6 °F 58% 29.73 in 10.0 mi SSW 11.5 mph - N/A   Clear
11:15 PM 72.0 °F - 57.9 °F 61% 29.73 in 10.0 mi South 12.7 mph - N/A   Clear
11:35 PM 71.6 °F - 57.7 °F 62% 29.73 in 10.0 mi South 11.5 mph - N/A   Clear
11:55 PM 71.2 °F - 57.6 °F 62% 29.73 in 10.0 mi South 6.9 mph - N/A   Clear